Location: Vihti�l�
(61.3833°N, 23.0667°E)
Time: 03:22:18
(UTC+00:00)

Nadezhda 3 Rocket - Pass Details

Date: 29 November 2020
Orbit: 956 x 1000 km, 82.9° (Epoch: 19 January)

Event Time Altitude Azimuth Distance (km) Brightness Sun altitude
Rises 04:37:09 0° 346° (NNW) 3,730 6.8 -16.4°
Reaches altitude 10° 04:39:45 10° 342° (NNW) 2,772 6.1 -16.1°
Maximum altitude 04:45:53 53° 268° (W) 1,197 4.1 -15.4°
Drops below altitude 10° 04:51:56 10° 193° (SSW) 2,727 6.4 -14.7°
Sets 04:54:28 0° 189° (S) 3,664 7.1 -14.4°
